logo tempoitalia

Diretta Meteo Midlothian-Wax, Stati Uniti (USA)lunedì 31 agosto ore 01:35

Mappa
Sereno 28 °C Sereno 24 Ore: T.min 24 T.max 37
Ponente Sud Km/h 13 Punto di rugiada: 17 °C Umidità: 51% Visibilità: 10 Km
Il sole sorge alle: 07:02 Il sole tramonta alle: 19:53
31 Agosto 2026 01:35 tempo osservato: Sereno Sereno 28 51 1015 vento: Nord S 13
31 Agosto 2026 01:15 tempo osservato: Sereno Sereno 26 57 1015 vento: Nord N 5.5
31 Agosto 2026 00:55 tempo osservato: Sereno Sereno 27 54 1015 vento: Nord N 5.5
31 Agosto 2026 00:35 tempo osservato: Sereno Sereno 28 51 1015 vento: Nord N 5.5
31 Agosto 2026 00:15 tempo osservato: Sereno Sereno 28 51 1015 vento: Nord S 7.4
30 Agosto 2026 23:55 tempo osservato: Sereno Sereno 28 51 1015 vento: Nord S/SE 7.4
30 Agosto 2026 23:35 tempo osservato: Sereno Sereno 28 51 1015 vento: Nord N 5.5
30 Agosto 2026 23:15 tempo osservato: Sereno Sereno 29 48 1015 vento: Nord N 5.5
30 Agosto 2026 22:55 tempo osservato: Sereno Sereno 29 48 1015 vento: Nord N 5.5
30 Agosto 2026 22:35 tempo osservato: Sereno Sereno 30 45 1014 vento: Nord S/SE 7.4
30 Agosto 2026 22:15 tempo osservato: Sereno Sereno 30 45 1014 vento: Nord N 5.5
30 Agosto 2026 21:55 tempo osservato: Sereno Sereno 30 45 1014 vento: Nord N 0
30 Agosto 2026 21:35 tempo osservato: Sereno Sereno 31 43 1014 vento: Nord N 5.5
30 Agosto 2026 21:15 tempo osservato: Sereno Sereno 32 40 1014 vento: Nord N 5.5
30 Agosto 2026 20:55 tempo osservato: Sereno Sereno 32 40 1013 vento: Nord N 5.5
30 Agosto 2026 20:35 tempo osservato: Sereno Sereno 33 38 1013 vento: Nord N 5.5
30 Agosto 2026 20:15 tempo osservato: Sereno Sereno 33 36 1013 vento: Nord N 5.5
30 Agosto 2026 19:55 tempo osservato: Sereno Sereno 34 34 1013 vento: Nord S/SE 7.4
30 Agosto 2026 19:35 tempo osservato: Sereno Sereno 35 32 1012 vento: Nord S/SE 7.4
30 Agosto 2026 19:15 tempo osservato: Sereno Sereno 36 30 1013 vento: Nord N 9.3
30 Agosto 2026 18:55 tempo osservato: Sereno Sereno 36 30 1013 vento: Nord S/SE 14.8
30 Agosto 2026 18:35 tempo osservato: Poco Nuvoloso Poco Nuvoloso 37 28 1013 vento: Nord SE 11.1
30 Agosto 2026 18:15 tempo osservato: Poco Nuvoloso Poco Nuvoloso 37 28 1013 vento: Nord S 13
30 Agosto 2026 17:55 tempo osservato: Sereno Sereno 37 27 1013 vento: Nord S/SE 11.1
30 Agosto 2026 17:35 tempo osservato: Sereno Sereno 37 28 1013 vento: Nord S 14.8
30 Agosto 2026 17:15 tempo osservato: Sereno Sereno 37 27 1013 vento: Nord S/SO 13
30 Agosto 2026 16:55 tempo osservato: Sereno Sereno 37 27 1013 vento: Nord S/SE 18.5
30 Agosto 2026 16:35 tempo osservato: Sereno Sereno 37 27 1013 vento: Nord S 13
30 Agosto 2026 16:15 tempo osservato: Poco Nuvoloso Poco Nuvoloso 37 27 1014 vento: Nord S/SE 13
30 Agosto 2026 15:55 tempo osservato: Poco Nuvoloso Poco Nuvoloso 37 27 1014 vento: Nord S 11.1
30 Agosto 2026 15:35 tempo osservato: Poco Nuvoloso Poco Nuvoloso 37 27 1014 vento: Nord SE 9.3
30 Agosto 2026 15:15 tempo osservato: Sereno Sereno 37 27 1014 vento: Nord S/SE 22.2
30 Agosto 2026 14:55 tempo osservato: Sereno Sereno 37 27 1015 vento: Nord S 22.2
30 Agosto 2026 14:35 tempo osservato: Sereno Sereno 37 27 1015 vento: Nord S/SE 14.8
30 Agosto 2026 14:15 tempo osservato: Sereno Sereno 37 28 1015 vento: Nord S 14.8
30 Agosto 2026 13:55 tempo osservato: Sereno Sereno 37 28 1016 vento: Nord S 22.2
30 Agosto 2026 13:35 tempo osservato: Sereno Sereno 36 30 1016 vento: Nord S/SE 16.7
30 Agosto 2026 13:15 tempo osservato: Sereno Sereno 36 32 1016 vento: Nord S 18.5
30 Agosto 2026 12:55 tempo osservato: Sereno Sereno 36 32 1017 vento: Nord S/SO 16.7
30 Agosto 2026 12:35 tempo osservato: Sereno Sereno 35 34 1017 vento: Nord S/SE 18.5
30 Agosto 2026 12:15 tempo osservato: Sereno Sereno 36 32 1017 vento: Nord S/SO 16.7
30 Agosto 2026 11:55 tempo osservato: Sereno Sereno 35 34 1017 vento: Nord S 11.1
30 Agosto 2026 11:35 tempo osservato: Sereno Sereno 34 38 1017 vento: Nord S/SO 16.7
30 Agosto 2026 11:15 tempo osservato: Sereno Sereno 34 41 1017 vento: Nord S 16.7
30 Agosto 2026 10:55 tempo osservato: Sereno Sereno 33 43 1017 vento: Nord S 14.8
30 Agosto 2026 10:35 tempo osservato: Sereno Sereno 33 46 1017 vento: Nord S/SO 13
30 Agosto 2026 10:15 tempo osservato: Sereno Sereno 32 52 1017 vento: Nord SO 13
30 Agosto 2026 09:55 tempo osservato: Sereno Sereno 31 55 1017 vento: Nord S/SO 16.7
30 Agosto 2026 09:35 tempo osservato: Sereno Sereno 30 58 1017 vento: Nord S 11.1
30 Agosto 2026 09:15 tempo osservato: Sereno Sereno 29 66 1017 vento: Nord S 13
30 Agosto 2026 08:55 tempo osservato: Sereno Sereno 27 74 1017 vento: Nord S 11.1
30 Agosto 2026 08:35 tempo osservato: Sereno Sereno 27 74 1017 vento: Nord S 9.3
30 Agosto 2026 08:15 tempo osservato: Sereno Sereno 26 78 1017 vento: Nord S/SE 7.4
30 Agosto 2026 07:55 tempo osservato: Sereno Sereno 25 78 1017 vento: Nord N 5.5
30 Agosto 2026 07:35 tempo osservato: Sereno Sereno 24 83 1017 vento: Nord SE 7.4
30 Agosto 2026 07:15 tempo osservato: Sereno Sereno 24 83 1016 vento: Nord N 5.5
30 Agosto 2026 06:55 tempo osservato: Sereno Sereno 24 83 1016 vento: Nord N 5.5
30 Agosto 2026 06:35 tempo osservato: Sereno Sereno 25 78 1016 vento: Nord N 5.5
30 Agosto 2026 06:15 tempo osservato: Sereno Sereno 25 78 1016 vento: Nord S 9.3
30 Agosto 2026 05:55 tempo osservato: Sereno Sereno 26 73 1016 vento: Nord S/SE 7.4
30 Agosto 2026 05:35 tempo osservato: Sereno Sereno 26 73 1015 vento: Nord N 5.5
30 Agosto 2026 05:15 tempo osservato: Sereno Sereno 26 73 1015 vento: Nord S 9.3
30 Agosto 2026 04:55 tempo osservato: Sereno Sereno 26 73 1015 vento: Nord S/SE 7.4
30 Agosto 2026 04:35 tempo osservato: Sereno Sereno 27 69 1015 vento: Nord S 9.3
30 Agosto 2026 04:15 tempo osservato: Sereno Sereno 27 65 1015 vento: Nord S 9.3
30 Agosto 2026 03:55 tempo osservato: Sereno Sereno 27 65 1015 vento: Nord S 7.4
30 Agosto 2026 03:35 tempo osservato: Sereno Sereno 27 61 1015 vento: Nord S 7.4
30 Agosto 2026 03:15 tempo osservato: Sereno Sereno 27 61 1015 vento: Nord N 5.5
30 Agosto 2026 02:55 tempo osservato: Sereno Sereno 27 57 1015 vento: Nord S 7.4
30 Agosto 2026 02:35 tempo osservato: Sereno Sereno 27 57 1015 vento: Nord S 7.4
30 Agosto 2026 02:15 tempo osservato: Sereno Sereno 27 57 1015 vento: Nord S 9.3
30 Agosto 2026 01:55 tempo osservato: Sereno Sereno 26 61 1015 vento: Nord N 0
30 Agosto 2026 01:35 tempo osservato: Sereno Sereno 26 57 1015 vento: Nord N 0